PHOENIX

Last updated on May 9, 2019, 12:02 a.m. UTC

1 42706U 98067LP  19128.42254485  .08245211  12410-4  57150-3 0  9990
2 42706  51.5998 109.6560 0003143 270.9046 228.4560 16.40380041113340

Satellite is not in orbit.